Flag for United Kingdom Weather past 2 weeks in Stoke-on-Trent, England, United Kingdom

Now
43 °F

Scattered clouds.


Feels Like: 34 °F
Forecast: 34 / 42 °F
Wind: 18 mph from West

Location: Manchester Airport

Current Time: Mar 3, 2015 at 12:07:53 PM

Latest Report: Mar 3, 2015 at 11:20 AM


Visibility: N/A

Pressure: 29.86 "Hg

Humidity: 53%

Dew point: 27 °F

Location of Stoke-on-TrentLocation

Historic Weather in Stoke-on-Trent — Graph

°F

Stoke-on-Trent temperature yesterday

Maximum temperature yesterday: 43 °F (at 1:20 PM)
Minimum temperature yesterday: 32 °F (at 3:20 AM)
Average temperature yesterday: 37 °F

Past Weeks' High & Low Weather Summary

 TemperatureHumidityPressure
High52 °F (Feb 28, 12:50 PM)100% (Feb 16, 10:20 AM)30.66 "Hg (Feb 16, 10:20 AM)
Low28 °F (Feb 17, 6:20 AM)53% (Mar 2, 4:20 PM)29.03 "Hg (Feb 23, 4:20 PM)
Average41 °F85%29.76 "Hg
* Reported Feb 16 10:20 AM — Mar 3 10:50 AM, Stoke-on-Trent, Weather by CustomWeather, © 2015

Note: Actual official high and low records may vary slightly from our data, if they occured in-between our weather recording intervals... More about our weather records

Advertising

Stoke-on-Trent weather history for previous 24 hours

 ConditionsComfort  
Time TempWeatherWind HumidityBarometerVisibility
10:50 AM
Tue, Mar 3
43 °FScattered clouds.18 mph53%29.86 "HgN/A
10:20 AM39 °FScattered clouds.17 mph65%29.86 "HgN/A
9:50 AM41 °FBroken clouds.10 mph76%29.86 "HgN/A
9:20 AM37 °FPassing clouds.12 mph87%29.83 "HgN/A
8:50 AM37 °FPassing clouds.12 mph87%29.83 "HgN/A
8:20 AM36 °FPassing clouds.9 mph93%29.83 "HgN/A
7:50 AM34 °FPassing clouds.8 mph100%29.80 "HgN/A
7:20 AM34 °FPassing clouds.12 mph100%29.80 "HgN/A
6:50 AM34 °FPassing clouds.12 mph100%29.80 "HgN/A
6:20 AM34 °FPassing clouds.12 mph100%29.80 "HgN/A
5:50 AM36 °FClear.13 mph93%29.77 "Hg10 mi
5:20 AM36 °FClear.12 mph93%29.80 "Hg10 mi
4:50 AM36 °FClear.13 mph93%29.80 "Hg10 mi
4:20 AM36 °FClear.13 mph87%29.80 "Hg10 mi
3:50 AM36 °FClear.13 mph87%29.80 "Hg10 mi
3:20 AM34 °FClear.9 mph93%29.80 "Hg10 mi
2:50 AM34 °FClear.12 mph87%29.80 "Hg10 mi
2:20 AM34 °FChilly.10 mph87%29.83 "HgN/A
1:50 AM34 °FChilly.9 mph87%29.83 "HgN/A
1:20 AM32 °FChilly.8 mph93%29.83 "HgN/A
12:50 AM32 °FChilly.6 mph93%29.83 "HgN/A
12:20 AM34 °FClear.8 mph87%29.83 "Hg10 mi
11:50 PM
Mon, Mar 2
34 °FClear.8 mph87%29.83 "Hg10 mi
11:20 PM34 °FClear.9 mph93%29.83 "Hg10 mi
10:50 PM34 °FClear.9 mph93%29.83 "Hg10 mi
10:20 PM34 °FClear.8 mph93%29.83 "Hg10 mi
9:50 PM34 °FClear.10 mph93%29.83 "Hg10 mi
9:20 PM34 °FClear.10 mph93%29.80 "Hg10 mi
8:50 PM36 °FPassing clouds.12 mph87%29.80 "HgN/A
8:20 PM36 °FPassing clouds.13 mph81%29.80 "HgN/A
7:50 PM37 °FPassing clouds.12 mph70%29.80 "HgN/A
7:20 PM39 °FPassing clouds.13 mph70%29.80 "HgN/A
6:50 PM39 °FPassing clouds.14 mph70%29.80 "HgN/A
6:20 PM39 °FPassing clouds.16 mph65%29.77 "HgN/A
5:50 PM39 °FPassing clouds.13 mph65%29.77 "HgN/A
5:20 PM41 °FScattered clouds.16 mph61%29.77 "HgN/A
4:50 PM41 °FScattered clouds.23 mph57%29.77 "HgN/A
4:20 PM43 °FScattered clouds.15 mph53%29.77 "HgN/A
3:50 PM41 °FPassing clouds.15 mph61%29.74 "HgN/A
3:20 PM43 °FPassing clouds.20 mph57%29.74 "HgN/A
2:50 PM43 °FScattered clouds.23 mph57%29.71 "HgN/A
2:20 PM43 °FScattered clouds.25 mph57%29.71 "HgN/A
1:50 PM43 °FScattered clouds.28 mph57%29.71 "HgN/A
1:20 PM43 °FScattered clouds.30 mph66%29.68 "HgN/A
12:50 PM41 °FScattered clouds.24 mph70%29.65 "HgN/A
12:20 PM41 °FScattered clouds.29 mph76%29.65 "HgN/A
Weather by CustomWeather, © 2015

See weather overviewHow to use our weather pages